Date String (YYYY-MM-DD hh:mm:ss) UTC,Instrument flags,Ambient pressure (hPa),Sample flow (lpm),Bypass flow (lpm),Sample temperature (°C),Ambient temperature (°C),ASC tube jacket temperature (°C),LED temperature (°C),Box temperature (°C),Sample RH (%),Span deviation,Mass concentration (μg/m³),Mass concentration (μg/m³),Mass concentration (μg/m³)
DateTimeUTC,F1_M11,P_M11,Q1_M11,Q2_M11,T1_M11,T2_M11,T3_M11,T4_M11,T5_M11,U1_M11,ZSPAN_M11,X0_M11,X2_M11,X1_M11
2022-04-26 18:00:00,,0827.4,4.99,0.00,25.4,24.7,00.0,34.1,27.3,09.8,0002.7,0026.19,0010.36,0005.82
2022-04-26 18:01:00,,0827.4,4.99,0.00,25.4,24.7,00.0,34.2,27.3,09.1,0002.5,0025.96,0010.43,0005.87
2022-04-26 18:02:00,,0827.4,5.01,0.00,25.4,24.7,00.0,34.2,27.3,09.2,0002.7,0026.30,0010.55,0005.95
2022-04-26 18:03:00,,0827.3,5.00,0.00,25.4,24.7,00.0,34.2,27.3,09.1,0002.6,0027.24,0010.73,0006.04
2022-04-26 18:04:00,,0827.2,4.99,0.00,25.4,24.8,00.0,34.2,27.3,09.3,0001.9,0027.97,0010.85,0006.10
2022-04-26 18:05:00,,0827.5,5.00,0.00,25.4,24.8,00.0,34.2,27.3,09.4,0001.8,0028.91,0010.88,0006.14
2022-04-26 18:06:00,,0827.5,5.00,0.00,25.4,24.8,00.0,34.2,27.3,09.1,0001.1,0030.32,0010.97,0006.18
2022-04-26 18:07:00,,0827.2,4.99,0.00,25.4,24.8,00.0,34.2,27.3,08.8,0001.9,0030.47,0010.98,0006.21
2022-04-26 18:08:00,,0827.2,5.00,0.00,25.4,24.8,00.0,34.3,27.3,08.7,0001.4,0030.24,0010.91,0006.23
2022-04-26 18:09:00,,0827.3,5.00,0.00,25.5,24.8,00.0,34.3,27.3,09.2,0000.9,0030.27,0010.85,0006.24
2022-04-26 18:10:00,,0827.1,5.01,0.00,25.5,24.8,00.0,34.3,27.3,09.1,0000.6,0031.18,0010.93,0006.28
2022-04-26 18:11:00,,0827.1,4.99,0.00,25.5,24.8,00.0,34.3,27.3,09.2,0000.7,0031.49,0010.98,0006.32
2022-04-26 18:12:00,,0827.1,4.99,0.00,25.5,24.8,00.0,34.3,27.3,09.5,0001.0,0032.00,0011.15,0006.35
2022-04-26 18:13:00,,0827.1,5.00,0.00,25.5,24.8,00.0,34.3,27.4,09.3,0001.6,0032.01,0011.13,0006.36
2022-04-26 18:14:00,,0827.0,5.00,0.00,25.5,24.9,00.0,34.3,27.4,09.5,0001.6,0032.35,0011.12,0006.35
2022-04-26 18:15:00,,0827.0,5.02,0.00,25.5,24.9,00.0,34.3,27.4,09.8,0001.7,0033.98,0011.22,0006.33
2022-04-26 18:16:00,,0827.0,4.99,0.00,25.5,24.9,00.0,34.3,27.4,09.5,0002.0,0036.28,0011.37,0006.34
2022-04-26 18:17:00,,0827.0,4.99,0.00,25.6,24.9,00.0,34.4,27.4,09.5,0002.2,0035.11,0011.35,0006.36
2022-04-26 18:18:00,,0827.0,5.01,0.00,25.6,24.9,00.0,34.4,27.4,08.9,0002.1,0035.19,0011.40,0006.36
2022-04-26 18:19:00,,0827.0,5.01,0.00,25.6,24.9,00.0,34.4,27.4,08.9,0002.3,0035.22,0011.49,0006.36
2022-04-26 18:20:00,,0826.9,5.00,0.00,25.6,24.9,00.0,34.4,27.5,08.9,0001.6,0035.22,0011.64,0006.38
2022-04-26 18:21:00,,0826.9,4.98,0.00,25.6,25.0,00.0,34.4,27.5,09.0,0002.0,0034.30,0011.63,0006.38
2022-04-26 18:22:00,,0826.8,4.99,0.00,25.6,25.0,00.0,34.4,27.5,08.8,0002.7,0033.43,0011.68,0006.37
2022-04-26 18:23:00,,0826.9,5.00,0.00,25.6,25.0,00.0,34.4,27.5,09.1,0002.7,0033.06,0011.60,0006.35
2022-04-26 18:24:00,,0827.0,5.01,0.00,25.7,25.0,00.0,34.4,27.5,09.2,0001.7,0033.42,0011.63,0006.34
2022-04-26 18:25:00,,0826.8,5.00,0.00,25.7,25.0,00.0,34.5,27.6,08.9,0000.8,0032.81,0011.67,0006.33
2022-04-26 18:26:00,,0826.8,5.00,0.00,25.7,25.0,00.0,34.5,27.6,08.7,0001.1,0030.63,0011.60,0006.35
2022-04-26 18:27:00,,0826.8,4.99,0.00,25.7,25.1,00.0,34.5,27.6,09.0,0000.8,0027.82,0011.54,0006.34
2022-04-26 18:28:00,,0826.7,4.99,0.00,25.7,25.1,00.0,34.5,27.6,08.5,0000.9,0027.05,0011.44,0006.32
2022-04-26 18:29:00,,0826.8,5.01,0.00,25.8,25.1,00.0,34.5,27.6,08.1,0001.6,0026.94,0011.47,0006.30
2022-04-26 18:30:00,,0826.7,5.00,0.00,25.8,25.1,00.0,34.5,27.7,07.9,0001.7,0026.75,0011.61,0006.31
2022-04-26 18:31:00,,0826.7,5.00,0.00,25.8,25.1,00.0,34.6,27.7,08.0,0001.5,0026.87,0011.57,0006.28
2022-04-26 18:32:00,,0826.7,4.99,0.00,25.8,25.2,00.0,34.6,27.6,07.8,0000.5,0027.62,0011.60,0006.25
2022-04-26 18:33:00,,0826.8,5.00,0.00,25.8,25.2,00.0,34.6,27.6,07.9,0005.6,0027.96,0011.66,0006.24
2022-04-26 18:34:00,,0826.7,5.00,0.00,25.8,25.2,00.0,34.6,27.6,07.6,0012.9,0028.20,0011.74,0006.25
2022-04-26 18:35:00,,0826.6,5.01,0.00,25.8,25.2,00.0,34.6,27.7,07.8,0005.2,0028.16,0011.74,0006.26
2022-04-26 18:36:00,,0826.6,5.00,0.00,25.8,25.2,00.0,34.6,27.7,08.3,0000.5,0028.26,0011.81,0006.26
2022-04-26 18:37:00,,0826.6,5.00,0.00,25.8,25.2,00.0,34.6,27.7,08.4,0002.5,0028.46,0011.85,0006.26
2022-04-26 18:38:00,,0826.6,5.01,0.00,25.9,25.2,00.0,34.6,27.7,08.4,0003.3,0028.68,0011.88,0006.26
2022-04-26 18:39:00,,0826.6,4.99,0.00,25.9,25.3,00.0,34.7,27.7,08.1,0004.5,0029.63,0011.98,0006.27
2022-04-26 18:40:00,,0826.6,4.99,0.00,25.9,25.3,00.0,34.7,27.8,07.8,0003.0,0029.68,0011.98,0006.28
2022-04-26 18:41:00,,0826.6,5.02,0.00,25.9,25.3,00.0,34.7,27.7,07.8,0001.9,0029.96,0011.80,0006.27
2022-04-26 18:42:00,,0826.5,5.00,0.00,25.9,25.3,00.0,34.7,27.7,07.8,0002.8,0030.06,0011.77,0006.27
2022-04-26 18:43:00,,0826.5,5.00,0.00,25.9,25.3,00.0,34.7,27.8,08.0,0002.6,0030.43,0011.89,0006.27
2022-04-26 18:44:00,,0826.5,5.00,0.00,25.9,25.3,00.0,34.7,27.8,08.0,0002.9,0030.91,0011.95,0006.29
2022-04-26 18:45:00,,0826.5,5.01,0.00,25.9,25.3,00.0,34.7,27.8,07.8,0003.6,0031.15,0011.93,0006.29
2022-04-26 18:46:00,,0826.5,4.99,0.00,25.9,25.3,00.0,34.7,27.8,07.7,0003.6,0031.15,0012.09,0006.32
2022-04-26 18:47:00,,0826.5,5.00,0.00,25.9,25.2,00.0,34.7,27.8,07.9,0003.6,0031.47,0012.19,0006.35
2022-04-26 18:48:00,,0826.5,5.00,0.00,25.9,25.2,00.0,34.8,27.8,07.6,0002.8,0032.59,0012.26,0006.38
2022-04-26 18:49:00,,0826.5,4.99,0.00,25.9,25.3,00.0,34.8,27.8,07.7,0002.4,0032.68,0012.31,0006.39
2022-04-26 18:50:00,,0826.4,5.01,0.00,26.0,25.3,00.0,34.8,27.8,08.2,0003.0,0032.66,0012.42,0006.38
2022-04-26 18:51:00,,0826.4,5.00,0.00,26.0,25.3,00.0,34.8,27.8,07.9,0003.2,0032.95,0012.44,0006.38
2022-04-26 18:52:00,,0826.4,4.99,0.00,26.0,25.3,00.0,34.8,27.9,08.1,0003.8,0032.50,0012.53,0006.40
2022-04-26 18:53:00,,0826.3,5.00,0.00,26.0,25.3,00.0,34.8,27.9,08.3,0004.1,0032.37,0012.64,0006.41
2022-04-26 18:54:00,,0826.3,5.00,0.00,26.0,25.4,00.0,34.8,27.9,08.2,0004.2,0031.30,0012.59,0006.41
2022-04-26 18:55:00,,0826.2,5.00,0.00,26.0,25.4,00.0,34.8,27.9,08.1,0004.1,0031.06,0012.47,0006.41
2022-04-26 18:56:00,,0826.3,5.01,0.00,26.1,25.4,00.0,34.8,27.9,08.0,0003.5,0030.85,0012.44,0006.40
2022-04-26 18:57:00,,0826.2,5.02,0.00,26.1,25.5,00.0,34.9,27.9,07.7,0003.2,0030.04,0012.26,0006.37
2022-04-26 18:58:00,,0826.2,5.00,0.00,26.1,25.5,00.0,34.9,28.0,07.8,0003.4,0030.03,0012.11,0006.33
2022-04-26 18:59:00,,0826.2,5.00,0.00,26.1,25.5,00.0,34.9,28.0,08.0,0003.3,0030.09,0012.11,0006.30
